CSKFT SBCS-SDCZ

Flight info

Callsign CSKFT
Flight time N/A
Altitude 2500
Route SBCS DCT SDCZ
Aircraft BE58/L-BE58/C

Departure

Time N/A
Airport SBCS

Arrival

Time 2026-05-06 22:34
Airport Fazenda Bom Jardim Airport (SDCZ)
Time Latitude Longitude Altitude Speed Heading
2026-05-06 21:49 -22.92382 -43.71166 13 ft 0 kts 116°
2026-05-06 22:11 -22.92384 -43.71162 13 ft 3 kts 119°
2026-05-06 22:11 -22.92414 -43.71144 13 ft 5 kts 180°
2026-05-06 22:11 -22.92447 -43.71152 13 ft 5 kts 201°
2026-05-06 22:11 -22.92475 -43.71161 13 ft 4 kts 196°
2026-05-06 22:12 -22.92499 -43.71168 13 ft 3 kts 195°
2026-05-06 22:12 -22.92519 -43.71174 13 ft 3 kts 194°
2026-05-06 22:12 -22.92527 -43.71176 13 ft 0 kts 194°
2026-05-06 22:12 -22.92537 -43.71205 13 ft 13 kts 257°
2026-05-06 22:13 -22.92566 -43.71352 13 ft 25 kts 254°
2026-05-06 22:13 -22.92687 -43.71461 13 ft 22 kts 204°
2026-05-06 22:13 -22.92816 -43.71525 13 ft 19 kts 205°
2026-05-06 22:13 -22.92928 -43.71580 14 ft 16 kts 204°
2026-05-06 22:14 -22.93027 -43.71627 14 ft 15 kts 202°
2026-05-06 22:14 -22.93124 -43.71673 14 ft 17 kts 204°
2026-05-06 22:14 -22.93223 -43.71722 14 ft 15 kts 207°
2026-05-06 22:14 -22.93312 -43.71761 14 ft 13 kts 201°
2026-05-06 22:15 -22.93387 -43.71799 13 ft 11 kts 204°
2026-05-06 22:15 -22.93485 -43.71848 13 ft 21 kts 203°
2026-05-06 22:15 -22.93625 -43.71915 13 ft 21 kts 204°
2026-05-06 22:15 -22.93745 -43.71974 13 ft 17 kts 205°
2026-05-06 22:16 -22.93837 -43.72018 13 ft 12 kts 202°
2026-05-06 22:16 -22.93940 -43.72066 14 ft 21 kts 203°
2026-05-06 22:16 -22.94075 -43.72132 14 ft 19 kts 205°
2026-05-06 22:16 -22.94178 -43.72183 14 ft 14 kts 204°
2026-05-06 22:17 -22.94254 -43.72219 14 ft 10 kts 204°
2026-05-06 22:17 -22.94310 -43.72249 14 ft 9 kts 208°
2026-05-06 22:17 -22.94358 -43.72298 14 ft 10 kts 240°
2026-05-06 22:17 -22.94375 -43.72377 14 ft 11 kts 266°
2026-05-06 22:18 -22.94333 -43.72433 14 ft 11 kts
2026-05-06 22:18 -22.94269 -43.72403 14 ft 9 kts 23°
2026-05-06 22:18 -22.94247 -43.72393 14 ft 0 kts 21°
2026-05-06 22:19 -22.93911 -43.72229 20 ft 98 kts 23°
2026-05-06 22:19 -22.93187 -43.71873 283 ft 122 kts 24°
2026-05-06 22:19 -22.92391 -43.71494 716 ft 127 kts 18°
2026-05-06 22:20 -22.91518 -43.71174 1148 ft 136 kts 20°
2026-05-06 22:20 -22.90616 -43.70835 1634 ft 138 kts 24°
2026-05-06 22:20 -22.89925 -43.70150 2133 ft 138 kts 63°
2026-05-06 22:20 -22.89592 -43.69154 2475 ft 152 kts 72°
2026-05-06 22:21 -22.89241 -43.67975 2487 ft 174 kts 72°
2026-05-06 22:21 -22.88858 -43.66683 2486 ft 185 kts 72°
2026-05-06 22:21 -22.88523 -43.65339 2478 ft 189 kts 85°
2026-05-06 22:21 -22.88808 -43.63934 2484 ft 192 kts 115°
2026-05-06 22:22 -22.89531 -43.62727 2479 ft 194 kts 126°
2026-05-06 22:22 -22.90346 -43.61571 2483 ft 192 kts 127°
2026-05-06 22:22 -22.91405 -43.60717 2478 ft 195 kts 161°
2026-05-06 22:22 -22.92750 -43.60762 2475 ft 198 kts 199°
2026-05-06 22:23 -22.93945 -43.61489 2474 ft 197 kts 217°
2026-05-06 22:23 -22.94880 -43.62553 2476 ft 194 kts 231°
2026-05-06 22:23 -22.95715 -43.63702 2480 ft 193 kts 232°
2026-05-06 22:23 -22.96540 -43.64851 2482 ft 193 kts 232°
2026-05-06 22:24 -22.97375 -43.66009 2477 ft 196 kts 232°
2026-05-06 22:24 -22.98213 -43.67179 2482 ft 197 kts 232°
2026-05-06 22:24 -22.99055 -43.68351 2474 ft 196 kts 232°
2026-05-06 22:24 -22.99898 -43.69522 2474 ft 197 kts 232°
2026-05-06 22:25 -23.00740 -43.70692 2475 ft 197 kts 232°
2026-05-06 22:25 -23.01583 -43.71862 2475 ft 197 kts 232°
2026-05-06 22:25 -23.02428 -43.73033 2476 ft 196 kts 232°
2026-05-06 22:25 -23.03015 -43.74325 2464 ft 195 kts 263°
2026-05-06 22:26 -23.02753 -43.75724 2467 ft 191 kts 301°
2026-05-06 22:26 -23.02023 -43.76923 2473 ft 191 kts 302°
2026-05-06 22:26 -23.01451 -43.78229 2484 ft 192 kts 294°
2026-05-06 22:26 -23.00955 -43.79579 2497 ft 193 kts 293°
2026-05-06 22:27 -23.00450 -43.80936 2496 ft 195 kts 294°
2026-05-06 22:27 -22.99933 -43.82300 2503 ft 196 kts 293°
2026-05-06 22:27 -22.99415 -43.83668 2508 ft 196 kts 293°
2026-05-06 22:27 -22.98898 -43.85034 2507 ft 195 kts 293°
2026-05-06 22:28 -22.98384 -43.86391 2504 ft 194 kts 293°
2026-05-06 22:28 -22.97871 -43.87746 2504 ft 194 kts 293°
2026-05-06 22:28 -22.97359 -43.89098 2507 ft 194 kts 294°
2026-05-06 22:28 -22.96848 -43.90448 2504 ft 193 kts 294°
2026-05-06 22:29 -22.96332 -43.91809 2414 ft 198 kts 294°
2026-05-06 22:29 -22.95805 -43.93195 2121 ft 197 kts 294°
2026-05-06 22:29 -22.95319 -43.94479 1796 ft 172 kts 294°
2026-05-06 22:29 -22.94887 -43.95619 1585 ft 157 kts 294°
2026-05-06 22:30 -22.94493 -43.96654 1392 ft 137 kts 293°
2026-05-06 22:30 -22.94182 -43.97480 1245 ft 109 kts 292°
2026-05-06 22:30 -22.93897 -43.98240 1198 ft 108 kts 293°
2026-05-06 22:30 -22.93659 -43.99017 1115 ft 111 kts 282°
2026-05-06 22:31 -22.93524 -43.99843 1069 ft 110 kts 277°
2026-05-06 22:31 -22.93433 -44.00672 1003 ft 111 kts 275°
2026-05-06 22:31 -22.93367 -44.01504 906 ft 109 kts 274°
2026-05-06 22:31 -22.93285 -44.02328 819 ft 111 kts 276°
2026-05-06 22:32 -22.93177 -44.03143 825 ft 106 kts 275°
2026-05-06 22:32 -22.93119 -44.03964 829 ft 111 kts 272°
2026-05-06 22:32 -22.93088 -44.04798 823 ft 112 kts 270°
2026-05-06 22:32 -22.93097 -44.05646 767 ft 110 kts 263°
2026-05-06 22:33 -22.93249 -44.06447 687 ft 109 kts 248°
2026-05-06 22:33 -22.93456 -44.07200 346 ft 104 kts 262°
2026-05-06 22:33 -22.93494 -44.07966 84 ft 102 kts 269°
2026-05-06 22:33 -22.93494 -44.08719 -13 ft 94 kts 268°
2026-05-06 22:34 -22.93501 -44.09320 -15 ft 65 kts 269°
2026-05-06 22:34 -22.93501 -44.09672 -11 ft 21 kts 266°
2026-05-06 22:34 -22.93472 -44.09721 -11 ft 0 kts 265°